Lacon, IL

1:54 PM CDT on May 28, 2017 (GMT -0500)
Lacon

Weather History for KC75 - October, 2013

Change the Weather History Date:

Sunday, October 20, 2013

  Actual Average (KVYS) Record (KVYS)
Temperature  
Mean Temperature 54 °F -  
Max Temperature 68 °F 60 °F 87 °F (2003)
Min Temperature 41 °F 37 °F 23 °F (1992)
Degree Days  
Heating Degree Days 10    
Growing Degree Days 4 (Base 50)    
Moisture  
Dew Point 41 °F    
Average Humidity 64    
Maximum Humidity 87    
Minimum Humidity 39    
Precipitation  
Precipitation 0.00 in - - ()
Sea Level Pressure  
Sea Level Pressure 29.82 in    
Wind  
Wind Speed 6 mph (SSW)    
Max Wind Speed 17 mph    
Max Gust Speed 22 mph    
Visibility 10 miles    
Events Rain    
Averages and records for this station are not official NWS values.
T = Trace of Precipitation, MM = Missing Value Source: NWS Daily Summary

Daily Weather History Graph

Daily Weather History Graph

Search for Another Location

Airport or City:

Trip Planner

Search our weather history database for the weather conditions in past years. The results will help you decide how hot, cold, wet, or windy it might be!

Date:

Astronomy

Oct. 20, 2013 Rise Set
Actual Time 7:14 AM CDT 6:08 PM CDT
Civil Twilight 6:46 AM CDT 6:36 PM CDT
Nautical Twilight 6:14 AM CDT 7:08 PM CDT
Astronomical Twilight 5:42 AM CDT 7:40 PM CDT
Moon 7:16 PM CDT (10/20) 8:53 AM CDT (10/20)
Length of Visible Light 11h 50m
Length of Day
10h 54m
Full, 97% of the Moon is Illuminated
Oct 20
Full
Oct 26
Last Quarter
Nov 3
New
Nov 9
First Quarter
Nov 17
Full

Hourly Weather History & Observations

Time (CDT) Temp. Windchill Dew Point Humidity Pressure Visibility Wind Dir Wind Speed Gust Speed Precip Events Conditions
12:15 AM 47.8 °F - 36.7 °F 65% 29.86 in 10.0 mi SW 6.9 mph - N/A   Clear
12:35 AM 46.6 °F - 36.7 °F 68% 29.85 in 10.0 mi SW 6.9 mph - N/A   Clear
12:55 AM 46.2 °F 42.7 °F 36.9 °F 70% 29.85 in 10.0 mi SW 6.9 mph - N/A   Clear
1:15 AM 45.3 °F 41.6 °F 37.0 °F 73% 29.85 in 10.0 mi SW 6.9 mph - N/A   Clear
1:35 AM 44.8 °F 41.6 °F 36.9 °F 74% 29.85 in 10.0 mi SSW 5.8 mph - N/A   Clear
1:55 AM 45.5 °F 41.8 °F 37.6 °F 74% 29.86 in 10.0 mi SW 6.9 mph - N/A   Mostly Cloudy
2:15 AM 46.0 °F 43.1 °F 37.9 °F 73% 29.86 in 10.0 mi SSW 5.8 mph - N/A   Overcast
2:35 AM 45.7 °F 43.4 °F 37.9 °F 74% 29.85 in 10.0 mi SSW 4.6 mph - N/A   Overcast
2:55 AM 45.5 °F 44.2 °F 38.3 °F 76% 29.86 in 10.0 mi SSW 3.5 mph - N/A   Overcast
3:15 AM 45.5 °F 44.2 °F 38.3 °F 76% 29.85 in 10.0 mi SSW 3.5 mph - N/A   Overcast
3:35 AM 45.3 °F 43.0 °F 38.3 °F 76% 29.85 in 10.0 mi SSW 4.6 mph - N/A   Overcast
3:55 AM 45.1 °F 42.0 °F 38.3 °F 77% 29.86 in 10.0 mi SSW 5.8 mph - N/A   Overcast
4:15 AM 44.6 °F 41.4 °F 38.3 °F 79% 29.86 in 10.0 mi SW 5.8 mph - N/A   Overcast
4:35 AM 44.2 °F 41.0 °F 38.3 °F 80% 29.86 in 10.0 mi SSW 5.8 mph - N/A   Overcast
4:55 AM 44.1 °F 40.8 °F 38.3 °F 80% 29.86 in 10.0 mi SW 5.8 mph - N/A   Overcast
5:15 AM 44.1 °F 41.5 °F 38.5 °F 81% 29.86 in 10.0 mi SW 4.6 mph - N/A   Overcast
5:35 AM 44.1 °F 41.5 °F 38.5 °F 81% 29.86 in 10.0 mi SSW 4.6 mph - N/A   Overcast
5:55 AM 44.1 °F 40.1 °F 38.5 °F 81% 29.86 in 10.0 mi SSW 6.9 mph - N/A   Overcast
6:15 AM 43.7 °F 40.3 °F 38.3 °F 81% 29.86 in 10.0 mi SW 5.8 mph - N/A   Mostly Cloudy
6:35 AM 42.1 °F 40.2 °F 37.9 °F 85% 29.86 in 10.0 mi SW 3.5 mph - N/A   Clear
6:55 AM 41.5 °F - 37.6 °F 86% 29.86 in 10.0 mi Calm Calm - N/A   Clear
7:15 AM 41.9 °F - 38.3 °F 87% 29.86 in 10.0 mi Calm Calm - N/A   Clear
7:35 AM 42.3 °F 40.5 °F 38.7 °F 87% 29.86 in 10.0 mi SSE 3.5 mph - N/A   Clear
7:55 AM 42.4 °F 40.7 °F 38.7 °F 86% 29.87 in 10.0 mi South 3.5 mph - N/A   Clear
8:15 AM 43.9 °F 40.5 °F 39.4 °F 84% 29.87 in 10.0 mi South 5.8 mph - N/A   Clear
8:35 AM 45.3 °F 42.3 °F 39.6 °F 80% 29.87 in 10.0 mi South 5.8 mph - N/A   Clear
8:55 AM 45.9 °F 41.2 °F 39.0 °F 77% 29.87 in 10.0 mi SSW 9.2 mph - N/A   Scattered Clouds
9:15 AM 46.8 °F - 39.4 °F 75% 29.87 in 10.0 mi SSW 6.9 mph - N/A   Scattered Clouds
9:35 AM 47.3 °F - 39.4 °F 74% 29.86 in 10.0 mi SSW 6.9 mph - N/A   Scattered Clouds
9:55 AM 47.8 °F - 39.4 °F 72% 29.86 in 10.0 mi SW 5.8 mph - N/A   Mostly Cloudy
10:15 AM 47.3 °F - 39.4 °F 74% 29.87 in 10.0 mi SSW 8.1 mph - N/A   Scattered Clouds
10:35 AM 48.2 °F - 40.1 °F 74% 29.86 in 10.0 mi SSW 8.1 mph - N/A   Scattered Clouds
10:55 AM 50.0 °F - 40.5 °F 70% 29.86 in 10.0 mi SSW 10.4 mph - N/A   Clear
11:15 AM 51.6 °F - 41.0 °F 67% 29.85 in 10.0 mi SSW 9.2 mph - N/A   Clear
11:35 AM 51.3 °F - 40.1 °F 66% 29.84 in 10.0 mi SW 8.1 mph - N/A   Scattered Clouds
11:55 AM 53.8 °F - 41.2 °F 62% 29.83 in 10.0 mi South 6.9 mph - N/A   Scattered Clouds
12:15 PM 54.9 °F - 41.5 °F 61% 29.82 in 10.0 mi South 5.8 mph - N/A   Scattered Clouds
12:35 PM 56.5 °F - 41.7 °F 58% 29.80 in 10.0 mi SSW 5.8 mph - N/A   Scattered Clouds
12:55 PM 58.3 °F - 41.7 °F 54% 29.79 in 10.0 mi South 9.2 mph 16.1 mph N/A   Clear
1:15 PM 59.2 °F - 43.0 °F 55% 29.79 in 10.0 mi WSW 6.9 mph - N/A   Scattered Clouds
1:35 PM 60.4 °F - 43.7 °F 54% 29.78 in 10.0 mi SW 9.2 mph 16.1 mph N/A   Scattered Clouds
1:55 PM 62.1 °F - 43.7 °F 51% 29.76 in 10.0 mi SSW 9.2 mph - N/A   Clear
2:15 PM 62.8 °F - 43.9 °F 50% 29.75 in 10.0 mi SSW 10.4 mph - N/A   Clear
2:35 PM 65.3 °F - 42.4 °F 43% 29.74 in 10.0 mi South 12.7 mph 17.3 mph N/A   Clear
2:55 PM 66.6 °F - 41.7 °F 40% 29.73 in 10.0 mi SSW 10.4 mph 18.4 mph N/A   Clear
3:15 PM 67.1 °F - 42.4 °F 41% 29.72 in 10.0 mi SW 12.7 mph 21.9 mph N/A   Clear
3:35 PM 68.0 °F - 42.1 °F 39% 29.72 in 10.0 mi SSW 17.3 mph 21.9 mph N/A   Clear
3:55 PM 68.0 °F - 42.1 °F 39% 29.73 in 10.0 mi SSW 12.7 mph 20.7 mph N/A   Clear
4:15 PM 66.7 °F - 41.2 °F 39% 29.72 in 10.0 mi SSW 15.0 mph 21.9 mph N/A   Clear
4:35 PM 67.5 °F - 41.7 °F 39% 29.73 in 10.0 mi SW 10.4 mph 20.7 mph N/A   Scattered Clouds
4:55 PM 66.9 °F - 41.2 °F 39% 29.75 in 10.0 mi SW 11.5 mph 17.3 mph N/A   Scattered Clouds
5:15 PM 66.7 °F - 41.4 °F 40% 29.75 in 10.0 mi SW 11.5 mph 16.1 mph N/A   Clear
5:35 PM 65.8 °F - 41.7 °F 41% 29.73 in 10.0 mi SW 9.2 mph - N/A   Scattered Clouds
5:55 PM 65.3 °F - 41.2 °F 41% 29.75 in 10.0 mi SW 9.2 mph 16.1 mph N/A   Mostly Cloudy
6:15 PM 64.6 °F - 41.9 °F 44% 29.75 in 10.0 mi SW 6.9 mph - N/A   Overcast
6:35 PM 64.2 °F - 41.2 °F 43% 29.76 in 10.0 mi WSW 6.9 mph - N/A   Overcast
6:55 PM 64.4 °F - 40.5 °F 41% 29.77 in 10.0 mi WSW 5.8 mph - N/A   Overcast
7:15 PM 64.4 °F - 40.3 °F 41% 29.77 in 10.0 mi WSW 4.6 mph - N/A   Mostly Cloudy
7:35 PM 62.4 °F - 41.0 °F 45% 29.78 in 10.0 mi Calm Calm - N/A   Mostly Cloudy
7:55 PM 61.5 °F - 41.2 °F 47% 29.78 in 10.0 mi WSW 4.6 mph - N/A   Mostly Cloudy
8:15 PM 59.7 °F - 42.4 °F 53% 29.79 in 10.0 mi South 3.5 mph - N/A   Overcast
8:35 PM 58.5 °F - 42.8 °F 56% 29.79 in 10.0 mi Calm Calm - N/A   Mostly Cloudy
8:55 PM 57.7 °F - 43.3 °F 59% 29.79 in 10.0 mi SSW 3.5 mph - N/A   Mostly Cloudy
9:15 PM 57.7 °F - 42.6 °F 57% 29.80 in 10.0 mi SW 4.6 mph - N/A   Mostly Cloudy
9:35 PM 59.2 °F - 42.8 °F 55% 29.81 in 10.0 mi WSW 3.5 mph - N/A   Overcast
9:55 PM 58.1 °F - 44.4 °F 60% 29.81 in 10.0 mi Calm Calm - N/A   Overcast
10:15 PM 55.9 °F - 45.5 °F 68% 29.82 in 10.0 mi Calm Calm - N/A   Overcast
10:35 PM 55.2 °F - 45.5 °F 70% 29.82 in 10.0 mi Calm Calm - N/A   Overcast
10:55 PM 53.6 °F - 47.7 °F 80% 29.83 in 10.0 mi Calm Calm - N/A   Overcast
11:15 PM 55.6 °F - 45.3 °F 68% 29.83 in 10.0 mi SSW 3.5 mph - N/A   Overcast
11:35 PM 55.4 °F - 45.1 °F 68% 29.83 in 10.0 mi SSW 3.5 mph - N/A Rain Rain
11:55 PM 54.7 °F - 45.7 °F 72% 29.83 in 10.0 mi South 5.8 mph - N/A   Light Drizzle